User: anonymous
Location: Stillwell
(40.4602°N, 82.0928°W)
Time: 17:34:53
(UTC-04:00)
Language:

Cosmos 2333 Rocket - Orbit

View from above orbital plane
View from above orbital plane
View from above satellite
View from above satellite

Ground track
Ground track

The orbit data is extracted from the following two-line orbital elements,

1 24298U 96051B   14293.58134753 -.00000092  00000-0 -23387-4 0  5818
2 24298 070.8599 307.8902 0016440 194.8266 301.9239 14.12458577934776
Epoch (UTC): 20 October 2014 13:57:08
Eccentricity: 0.0016440
inclination: 70.8599°
perigee height: 839 km
apogee height: 863 km
right ascension of ascending node: 307.8902°
argument of perigee: 194.8266°
revolutions per day: 14.12458577
mean anomaly at epoch: 301.9239°
orbit number at epoch: 93477

The dashed part of the orbit path shows where the satellite is in the earth's shadow,  

DLR